Portada
METAR-TAF:

METAR-TAF

Aeroports :

Columbus County Municipal Airport

Whiteville, Carolina del Nord, Estats Units d'Amèrica

latitud: 34-16-22N, longitud: 078-42-54W, altitud: 30 m

Observació

L'informe es va fer fa 34 minuts, a les 15:55 UTC
Vent 6 kt del Nord-Oest, variant entre Oest i Nord
Temperatura 17°C
Humitat 29%
Pressió 1014 hPa
Visibilitat: 16.1 km
Cel clar

METAR: KCPC 031555Z AUTO 32006KT 280V350 10SM CLR 17/M01 A2995 RMK AO2 T01721007

Hora: 12:29 (16:29 UTC)


TAF: manca

Observacions i pronòstics meteorològics de més de 4000 aeroports (METAR i TAF).

Les estacions disponibles són els punts grocs i vermells al mapa.

Posi el ratolí al punt desitjat per veure el nom de l'estació.

Feu clic per veure les observacions i els pronòstics meteorològics.

Per canviar el mapa: feu clic els botons verds amb una creu de color negre per apropar; al botó verd amb un guió per allunyar la imatge; o en les fletxes verdes per a mapes adjacents.


METAR-TAF: